This is the latest recevied weather packets stored in our database for station/object NC4M. If no packets are shown the sender has not sent any weather packets the latest 10 day(s).
| Time | Temp. | Humidity | Pressure | Rain* | Wind** | Luminosity | Snow |
|---|---|---|---|---|---|---|---|
| 1787491165 | 19.44° C | 85% | 1020.2 hPa | 0 mm | - | 41 W/m² | - |
| 1787490861 | 18.89° C | 85% | 1020 hPa | 0 mm | - | 41 W/m² | - |
| 1787490561 | 18.89° C | 87% | 1020 hPa | 0 mm | - | 35 W/m² | - |
| 1787490261 | 18.33° C | 90% | 1020.1 hPa | 0 mm | - | 37 W/m² | - |
| 1787489959 | 17.78° C | 93% | 1020.1 hPa | 0 mm | - | 29 W/m² | - |
| 1787489654 | 17.78° C | 95% | 1020.1 hPa | 0 mm | - | 28 W/m² | - |
| 1787489351 | 17.78° C | 96% | 1020.2 hPa | 0 mm | - | 26 W/m² | - |
| 1787489046 | 17.22° C | 97% | 1020 hPa | 0 mm | - | 23 W/m² | - |
| 1787488742 | 17.22° C | 97% | 1020 hPa | 0 mm | - | 22 W/m² | - |
| 1787488438 | 17.22° C | 97% | 1020 hPa | 0 mm | - | 19 W/m² | - |
| 1787488136 | 17.22° C | 97% | 1020.1 hPa | 0 mm | - | 18 W/m² | - |
| 1787487836 | 17.22° C | 97% | 1019.8 hPa | 0 mm | - | 17 W/m² | - |
| 1787487533 | 17.22° C | 97% | 1020 hPa | 0 mm | - | 16 W/m² | - |
| 1787487229 | 17.22° C | 97% | 1019.8 hPa | 0 mm | - | 17 W/m² | - |
| 1787486924 | 17.22° C | 97% | 1020.1 hPa | 0 mm | - | 16 W/m² | - |
| 1787486619 | 17.22° C | 97% | 1020.2 hPa | 0 mm | - | 15 W/m² | - |
| 1787486318 | 16.67° C | 97% | 1020.1 hPa | 0 mm | - | 13 W/m² | - |
| 1787486013 | 16.67° C | 97% | 1019.9 hPa | 0 mm | - | 11 W/m² | - |
| 1787485710 | 16.67° C | 97% | 1020.3 hPa | 0 mm | - | 9 W/m² | - |
| 1787485405 | 16.67° C | 97% | 1019.9 hPa | 0 mm | - | 7 W/m² | - |
| 1787485100 | 16.67° C | 97% | 1020 hPa | 0 mm | - | 5 W/m² | - |
| 1787484796 | 17.22° C | 97% | 1020.1 hPa | 0 mm | - | 3 W/m² | - |
| 1787484492 | 17.22° C | 97% | 1019.9 hPa | 0 mm | - | 2 W/m² | - |
| 1787484188 | 17.22° C | 96% | 1019.9 hPa | 0 mm | - | 1 W/m² | - |
| 1787483883 | 17.22° C | 96% | 1019.9 hPa | 0 mm | - | 0 W/m² | - |
* Rain latest hour (hover to see other rain measurements)
** Current wind speed in m/s (hover to see current wind gust speed)